Tracking 29892 objects as of 21-Nov-2024
HD Live streaming from Space Station
objects crossing your sky now

CZ-6A DEB

Track CZ-6A DEB now!
10-day predictions


NORAD ID: 55234
Int'l Code: 2022-151XB
Perigee: 833.4 km
Apogee: 995.0 km
Inclination: 98.8 °
Period: 103.1 minutes
Semi major axis: 7285 km
RCS: Unknown
Launch date: November 11, 2022
Source: People's Republic of China (PRC)
Launch site: Taiyaun Space Center, China (TSC)

Note: This is SATELLITE DEBRIS
Your satellite tracking list
Your tracking list is empty




NASA's NSSDC Master Catalog

Two Line Element Set (TLE):
1 55234U 22151XB  24325.92323649  .00000800  00000-0  58139-3 0  9991
2 55234  98.7990 304.8636 0110888 200.5907 159.0769 13.96180426102978
Source of the keplerian elements: AFSPC